www.pogodaiklimat.ru
ПОГОДА в Бельско-Бяла

Архив погоды в Бельско-Бяла (Польша)

Время
(UTC), дата
16 21.05
17 21.05
18 21.05
19 21.05
20 21.05
21 21.05
22 21.05
23 21.05
00 22.05
01 22.05
02 22.05
03 22.05
04 22.05
05 22.05
06 22.05
07 22.05
08 22.05
09 22.05
10 22.05
11 22.05
12 22.05
13 22.05
14 22.05
15 22.05
16 22.05
17 22.05
18 22.05
19 22.05
20 22.05
21 22.05
22 22.05
23 22.05
00 23.05
01 23.05
02 23.05
03 23.05
04 23.05
05 23.05
06 23.05
07 23.05
08 23.05
09 23.05
10 23.05
11 23.05
12 23.05
13 23.05
14 23.05
15 23.05
16 23.05
17 23.05
18 23.05
19 23.05
20 23.05
21 23.05
22 23.05
23 23.05
00 24.05
01 24.05
02 24.05
03 24.05
04 24.05
05 24.05
06 24.05
07 24.05
08 24.05
09 24.05
10 24.05
11 24.05
12 24.05
13 24.05
14 24.05
15 24.05
16 24.05
17 24.05
18 24.05
19 24.05
20 24.05
21 24.05
22 24.05
23 24.05
00 25.05
01 25.05
02 25.05
03 25.05
04 25.05
05 25.05
06 25.05
07 25.05
08 25.05
09 25.05
10 25.05
11 25.05
12 25.05
13 25.05
14 25.05
15 25.05
16 25.05
17 25.05
18 25.05
19 25.05
20 25.05
21 25.05
22 25.05
23 25.05
00 26.05
01 26.05
02 26.05
03 26.05
04 26.05
05 26.05
06 26.05
07 26.05
08 26.05
09 26.05
10 26.05
11 26.05
12 26.05
13 26.05
14 26.05
15 26.05
16 26.05
17 26.05
18 26.05
19 26.05
20 26.05
21 26.05
22 26.05
23 26.05
00 27.05
01 27.05
02 27.05
03 27.05
04 27.05
05 27.05
06 27.05
07 27.05
08 27.05
09 27.05
10 27.05
11 27.05
12 27.05
13 27.05
14 27.05
15 27.05
16 27.05
17 27.05
18 27.05
19 27.05
20 27.05
21 27.05
22 27.05
23 27.05
00 28.05
01 28.05
02 28.05
03 28.05
04 28.05
05 28.05
06 28.05
07 28.05
08 28.05
09 28.05
10 28.05
11 28.05
12 28.05
13 28.05
14 28.05
15 28.05
Ветер
(напр.,м/с)
Видим. Явления Облачность Т
(С)
Тd
(С)
f
(%)
Тe
(С)
Тes
(С)
Комфортность P
(гПа)
Po
(гПа)
Тmin
(С)
Tmax
(С)
R
(мм)
R24
(мм)
S
(см)
СВ 5 40 км 8/1 1500 м
[Cu med, cong Ac trans]
+23.5 +12.2 49 +25 +26 комфорт 1008.6 963.2
СВ 3 50 км 8/0
[Ac trans Ci sp]
+22.5 +12.1 52 +25 +26 комфорт 1008.5 963.0
В 4 40 км 4/0
[Ac trans Ci sp]
+20.8 +11.1 54 +23 +23 комфорт 1008.4 962.6 +18.0 +24.5
ЮВ 2 40 км 4/0
[Ac trans]
+18.8 +11.1 61 +20 +20 1008.8 962.7
В 3 40 км 6/0
[Ac und]
+18.0 +11.5 66 +18 +18 1008.6 962.4
ЮВ 3 50 км н/о +18.4 +11.2 63 +19 +19 1008.4 962.2
ЮВ 4 45 км н/о +18.9 +11.7 63 +20 +20 1008.5 962.4
ЮВ 4 50 км н/о +18.7 +11.7 64 +19 +19 1008.3 962.2
ЮВ 3 50 км н/о +19.0 +11.6 62 +20 +20 1008.4 962.3
ЮВ 2 50 км н/о +17.1 +11.6 70 +17 +17 1008.3 961.9
ЮВ 2 40 км н/о +16.1 +11.9 76 +16 +16 1008.3 961.8
В 1 35 км н/о +15.1 +11.7 80 +16 +16 1008.8 962.1
Ю 2 40 км н/о +17.7 +11.9 69 +18 +18 1008.5 962.2
Ю 4 30 км 9/6 1000 м
[Sc Ac trans]
+18.1 +11.9 67 +18 +18 1008.6 962.4
СВ 1 30 км 9/4 1500 м
[Sc Ac trans]
+18.8 +11.6 63 +21 +22 комфорт 1008.8 962.7 +14.7 +20.8
ЮВ 1 40 км в посл. час ливневой дождь 9/5 1500 м
[Cb cap Ac trans]
+18.6 +12.6 68 +20 +23 1009.2 963.0
В 1 30 км 10/3 1000 м
[Cu Sc Ac As]
+19.9 +12.9 64 +23 +26 комфорт 1009.0 963.0
З 3 30 км {ливн. дождь} 9/8 1000 м
[Cu Sc Ac trans]
+20.0 +12.5 62 +22 +24 комфорт 1009.3 963.3
З 3 10 км слаб. ливневой дождь 10/10 600 м
[Cb cap]
+18.4 +14.1 76 +19 +19 1009.6 963.4
СЗ 2 15 км ливневой дождь 10/10 600 м
[Cb cap]
+18.0 +14.9 82 +19 +19 1009.5 963.2
З 2 20 км слаб. ливневой дождь 10/10 300 м
[Cb cap]
+17.8 +15.1 84 +18 +18 1009.9 963.6 3
З 3 5000 м ливневой дождь 10/10 200 м
[Cb cap]
+16.5 +14.5 88 +16 +16 1009.9 963.4
З 1 2000 м ливневой дождь 10/10 100 м
[Cb cap]
+16.2 +14.9 92 +17 +17 1010.2 963.6
З 3 10 км слаб. ливневой дождь 10/10 100 м
[Cb cap]
+16.4 +15.3 93 +16 +16 1010.2 963.6
ЮЗ 3 20 км слаб. ливневой дождь 9/9 200 м
[Cb cap]
+16.3 +14.8 91 +16 +16 1010.2 963.6
Ю 2 20 км слаб. ливневой дождь 9/9 600 м
[Cb cap]
+16.9 +13.4 80 +17 +17 1010.2 963.7
Ю 1 20 км в посл. час ливневой дождь 9/6 600 м
[Cb cap Ac trans Ci fib]
+16.5 +13.2 81 +17 +17 1010.5 963.9 +16.2 +21.0 13
ЮВ 1 30 км 8/5 1500 м
[Sc Ac trans Ci fib]
+15.3 +13.1 87 +16 +16 1011.4 964.6
ЮВ 2 30 км 9/4 1000 м
[Sc Ac trans Ci fib]
+14.5 +13.2 92 +14 +14 1011.7 964.8
Ю 2 50 км н/о +15.1 +12.8 86 +15 +15 1011.6 964.8
Ю 2 50 км н/о +15.1 +12.2 83 +15 +15 1012.0 965.2
ЮЗ 4 50 км н/о +15.7 +10.9 73 +15 +15 1011.8 965.1
ЮЗ 3 50 км н/о +13.4 +10.0 80 +12 +12 1012.5 965.4 0.0
ЮЗ 3 50 км н/о +11.7 +9.8 88 +10 +10 1013.4 965.9
ЮЗ 4 50 км н/о +13.6 +10.9 84 +12 +12 1013.6 966.4
ЮЗ 2 50 км н/о +12.9 +10.4 85 +12 +12 1014.1 966.8
ЮЗ 2 50 км н/о +13.8 +11.3 85 +13 +13 1014.6 967.4
З 2 30 км 9/9 600 м
[Sc]
+14.7 +11.1 79 +14 +15 1014.7 967.7
ЮЗ 2 25 км 10/10 600 м
[Sc]
+14.3 +11.6 84 +14 +14 1015.4 968.3 +11.3 +16.5 0.0 12.5
ЮЗ 2 30 км 9/6 600 м
[Sc Ac trans]
+15.7 +10.9 73 +16 +18 1015.3 968.4
СЗ 1 30 км 9/9 600 м
[Cu med, cong]
+16.7 +10.5 67 +18 +19 1015.4 968.7
ЮЗ 2 30 км 9/9 600 м
[Cu med, cong]
+17.7 +10.3 62 +18 +20 1015.6 969.0
З 2 40 км 9/9 1000 м
[Cu med, cong]
+18.5 +10.3 59 +19 +21 1015.6 969.1
С 2 40 км 8/6 1000 м
[Cu med, cong Ac trans Ci sp]
+18.8 +9.8 56 +20 +25 1015.6 969.2
СЗ 2 40 км 8/5 1000 м
[Cu med, cong Ac trans]
+19.9 +10.0 53 +22 +27 комфорт 1015.2 969.0
С 2 40 км 8/4 1000 м
[Cu med, cong Ac trans Ci sp]
+19.7 +9.3 51 +21 +27 комфорт 1015.0 968.7
С 1 40 км 8/4 1000 м
[Cu med, cong Ci sp]
+20.9 +10.4 51 +24 +30 комфорт 1014.9 968.8
С 2 40 км 8/4 1000 м
[Cu med, cong Ac trans Ci sp]
+20.9 +9.8 49 +23 +26 комфорт 1014.8 968.7
С 2 40 км 9/4 1000 м
[Cu med, cong Ac trans Ci sp]
+21.0 +8.6 45 +23 +24 комфорт 1014.9 968.8
СВ 2 40 км 9/1 1000 м
[Sc Ac trans Ci sp]
+20.3 +9.8 51 +22 +23 комфорт 1015.2 969.0
ЮВ 3 40 км 9/3 1000 м
[Sc Ac trans Ci sp]
+18.4 +11.2 63 +19 +19 1015.8 969.3 +14.3 +21.2
В 2 40 км 9/9 1000 м
[Sc]
+17.4 +11.4 68 +18 +18 1016.5 969.8
В 2 40 км 9/6 1000 м
[Sc Ac trans]
+16.6 +11.5 72 +17 +17 1016.9 970.1
В 2 45 км н/о +16.4 +11.5 73 +17 +17 1017.4 970.5
В 3 45 км н/о +15.8 +12.0 78 +15 +15 1017.6 970.6
В 2 40 км н/о +14.9 +12.0 83 +15 +15 1018.0 970.8
ЮВ 3 50 км н/о +15.8 +11.6 76 +15 +15 1017.8 970.8
В 3 35 км н/о +14.7 +12.2 85 +14 +14 1017.9 970.7
В 3 30 км н/о +14.7 +12.2 85 +14 +14 1018.0 970.8
В 3 30 км слаб. ливневой дождь н/о +14.4 +12.3 87 +13 +13 1018.1 970.9
В 2 35 км в посл. час дождь н/о +14.6 +12.5 87 +14 +14 1018.2 971.0
В 2 30 км 9/5 2000 м
[Sc Ac trans Ci fib]
+15.6 +12.7 83 +15 +16 1018.1 971.1
В 2 40 км 9/3 1500 м
[Cu Sc Ac trans Ci fib]
+17.8 +12.9 73 +18 +20 1018.1 971.4 +14.3 +18.4 0.0 0.0
В 2 40 км 8/1 1000 м
[Cu med, cong Ac trans Ci fib]
+19.7 +12.9 65 +22 +27 комфорт 1017.9 971.5
В 2 40 км 6/3 1000 м
[Cu med, cong Ac trans Ci sp]
+21.0 +12.2 57 +24 +31 комфорт 1017.6 971.4
В 2 15 км гроза без осадков 8/6 600 м
[Cb cap Ac cuf]
+20.7 +13.2 62 +24 +28 комфорт 1017.7 971.5
З 2 15 км слаб. ливневой дождь, в посл. час гроза 9/8 600 м
[Cb cap Ac cuf]
+18.6 +12.8 69 +20 +22 1018.3 971.7
З 2 15 км слаб. ливневой дождь 9/8 300 м
[Cb cap Ac cuf]
+19.0 +14.5 75 +21 +23 комфорт 1018.3 971.8
С 3 25 км в посл. час ливневой дождь {гроза} 9/6 300 м
[Cb cap Ac cuf]
+19.8 +11.6 59 +22 +24 комфорт 1018.3 971.9 0.3
ЮЗ 4 15 км гроза, ливневой дождь 9/4 1000 м
[Cb cap Ac cuf Ci ing]
+18.9 +11.2 61 +20 +23 1018.1 971.6
Ю 3 50 км в посл. час ливневой дождь 8/1 1000 м
[Cu med, cong Ac trans Ci sp]
+20.0 +11.5 58 +22 +27 комфорт 1018.6 972.2
ЮЗ 4 50 км {гроза, ливн. дождь} 9/4 1000 м
[Cb calv Ac trans Ci sp]
+20.1 +10.5 54 +22 +23 комфорт 1017.8 971.5
ЮЗ 3 20 км осадки на расстоянии 9/4 1000 м
[Cb cap Ac trans Ci sp]
+19.4 +10.9 58 +21 +22 комфорт 1018.0 971.6
ЮЗ 2 40 км 9/3 1000 м
[Cb cap Ac trans Cs]
+19.6 +10.3 55 +21 +22 комфорт 1018.0 971.6
С 1 40 км {гроза, ливн. дождь} 8/3 600 м
[Cu med, cong Cs]
+18.7 +13.8 73 +21 +21 комфорт 1018.2 971.6 +17.8 +21.5 0.4
З 1 40 км 8/4 600 м
[Cu med, cong Ac lent Cs]
+17.6 +13.1 75 +19 +19 1019.0 972.2
Ю 1 40 км 6/1 600 м
[Cu med, cong Ac trans Ci fib]
+15.0 +11.4 79 +16 +16 1019.6 972.4
ЮВ 1 5000 м н/о +14.0 +12.0 88 +14 +14 1020.0 972.6
ЮВ 2 50 км н/о +12.5 +9.9 84 +12 +12 1020.4 972.7
В 1 50 км н/о +12.2 +9.8 85 +12 +12 1020.5 972.8
В 1 45 км н/о +12.8 +10.2 84 +13 +13 1020.3 972.7
В 2 50 км н/о +11.9 +9.1 83 +11 +11 1020.2 972.5
В 3 50 км н/о +12.4 +9.4 82 +11 +11 1020.4 972.7
В 2 50 км н/о +12.1 +8.9 81 +11 +11 1020.6 972.9
ЮВ 3 50 км н/о +12.2 +9.2 82 +11 +11 1020.8 973.1
В 4 40 км 5/0
[Ci fib]
+14.7 +9.7 72 +14 +15 1020.3 973.0
В 4 40 км 6/0
[Ci sp]
+17.5 +9.6 60 +17 +20 1019.9 973.1 +11.5 +19.0 0.4
В 3 50 км 6/1 600 м
[Cu hum Ci sp]
+19.4 +10.9 58 +21 +26 комфорт 1019.8 973.3
В 3 50 км 6/1 600 м
[Cu med, cong Ci sp]
+20.6 +10.4 52 +23 +31 комфорт 1019.5 973.2
ЮЗ 2 50 км 8/4 1000 м
[Cu med, cong Ci sp]
+21.6 +10.4 49 +23 +31 комфорт 1019.5 973.3
В 1 50 км 8/5 1000 м
[Cu med, cong Ci sp]
+21.4 +9.3 46 +23 +31 комфорт 1019.3 973.1
СВ 2 50 км в посл. час ливневой дождь 8/5 1000 м
[Cb calv Ci sp]
+21.2 +11.2 53 +23 +31 комфорт 1019.2 973.0
В 3 50 км {ливн. дождь} 8/5 1000 м
[Cb cap Ci sp]
+22.8 +10.2 45 +25 +31 комфорт 1018.4 972.5 0.4
З 3 15 км ливневой дождь 9/8 1000 м
[Cb cap Ci sp]
+19.9 +12.9 64 +22 +24 комфорт 1018.6 972.2
СЗ 1 {10} 30 км гроза без осадков {ливн. дождь} 9/9 1000 м
[Cb cap]
+18.6 +13.2 71 +20 +22 1018.8 972.2
В 3 {14} 15 км гроза без осадков {ливн. дождь} 9/9 600 м
[Cb cap]
+14.1 +11.8 86 +13 +14 1020.0 972.6
В 4 50 км в посл. час гроза {ливн. дождь} 9/9 600 м
[Cb cap]
+14.6 +12.1 85 +13 +14 1019.2 971.9
В 3 50 км 9/8 1000 м
[Cb cap Ci ing]
+15.3 +12.1 81 +15 +15 1018.9 971.8
В 3 {14} 50 км {гроза, ливн. дождь} 8/4 1000 м
[Cb calv Ci ing]
+14.8 +12.7 87 +14 +14 1019.3 972.1 +13.6 +22.9 15
В 4 50 км 8/3 1000 м
[Sc Ci ing]
+14.0 +11.0 82 +13 +13 1019.8 972.4
В 4 50 км 6/3 1000 м
[Sc Ci sp]
+14.1 +10.7 80 +13 +13 1020.2 972.8
В 4 50 км н/о +14.1 +10.3 78 +13 +13 1020.0 972.6
В 3 6000 м в посл. час туман н/о +13.1 +10.5 84 +12 +12 1020.4 972.8
В 2 40 км н/о +11.5 +9.7 89 +10 +10 1020.8 973.0
В 3 17 км н/о +11.3 +9.9 91 +9 +9 1020.6 972.7
В 4 28 км н/о +11.3 +9.9 91 +9 +9 1020.5 972.6
ЮВ 2 40 км н/о +10.6 +9.2 91 +9 +9 1020.5 972.5
В 2 45 км н/о +11.0 +9.1 88 +10 +10 1020.3 972.4
ЮВ 1 40 км н/о +11.0 +9.4 90 +11 +11 1020.8 972.9
В 2 40 км 6/1 1500 м
[Cu hum Ac trans Ci fib]
+11.6 +10.2 91 +10 +12 1021.1 973.3
ЮВ 1 40 км 6/1 1500 м
[Cu hum Ac trans Ci fib]
+15.3 +12.4 83 +16 +20 1020.7 973.5 +10.3 +15.3 15.3
С 1 40 км 6/1 1500 м
[Cu med, cong Ac trans Ci fib]
+18.7 +12.0 65 +20 +27 1020.3 973.6
В 1 40 км 6/1 1500 м
[Cu med, cong Ac trans Ci fib]
+21.3 +10.7 51 +23 +32 комфорт 1019.8 973.6
С 2 40 км 6/1 1500 м
[Cb cap Ac trans Ci fib]
+22.1 +9.6 45 +24 +33 комфорт 1019.8 973.7
С 2 30 км осадки на расстоянии 8/3 1500 м
[Cb cap Ci fib]
+23.0 +9.7 43 +25 +35 комфорт 1019.6 973.6
СВ 4 30 км осадки на расстоянии 8/4 1500 м
[Cb cap Ac cuf Ci fib]
+23.3 +11.0 46 +26 +30 жарко 1019.4 973.5
В 3 {10} 20 км в посл. час гроза {ливн. дождь} 9/5 1000 м
[Cb cap Ac cuf Ci ing]
+21.8 +9.0 44 +23 +27 комфорт 1019.9 973.7 0.0
В 5 30 км в посл. час гроза 9/3 1500 м
[Cb cap Ac cuf Ci ing]
+21.1 +11.1 53 +23 +26 комфорт 1020.1 973.8
ЮВ 3 30 км осадки на расстоянии 9/1 1000 м
[Cb cap Ac cuf Ci ing]
+21.6 +10.7 50 +23 +28 комфорт 1019.4 973.2
ЮВ 2 40 км осадки на расстоянии {гроза} 9/4 1000 м
[Cb cap Ac cuf Ci ing]
+21.8 +10.0 47 +23 +26 комфорт 1019.3 973.2
В 4 40 км осадки на расстоянии 9/5 1000 м
[Cb cap Ac cuf Ci ing]
+20.4 +9.0 48 +22 +23 комфорт 1020.1 973.7
ЮВ 2 50 км осадки на расстоянии 9/4 1000 м
[Cb cap Ac cuf Ci ing]
+19.6 +7.7 46 +21 +22 комфорт 1019.9 973.4
В 2 50 км осадки на расстоянии {гроза} 9/3 1000 м
[Cb cap Ac trans Ci sp]
+17.6 +10.0 61 +18 +18 1020.5 973.7 +15.3 +23.9 0.0
В 3 40 км 9/4 1000 м
[Sc Ac trans Cs]
+16.8 +9.9 64 +17 +17 1021.4 974.4
ЮВ 2 40 км 9/3 1000 м
[Sc Ac trans Cs]
+15.3 +10.3 72 +15 +15 1022.1 974.8
ЮВ 1 50 км н/о +14.0 +10.8 81 +14 +14 1022.4 974.9
В 2 50 км н/о +12.2 +9.9 86 +11 +11 1022.4 974.6
В 3 50 км н/о +12.4 +10.6 89 +11 +11 1022.3 974.5
В 4 45 км н/о +12.2 +10.3 88 +10 +10 1022.1 974.3
В 3 50 км н/о +11.6 +9.5 87 +10 +10 1021.8 973.9
В 3 50 км н/о +11.1 +9.2 88 +9 +9 1021.7 973.8
В 3 45 км н/о +10.9 +9.2 89 +9 +9 1021.8 973.8
В 2 45 км н/о +12.6 +9.8 83 +12 +12 1021.6 973.9
В 3 40 км ясно +14.8 +10.0 73 +14 +16 1021.4 974.1
В 2 40 км 1/0
[Ci fib]
+17.9 +10.8 63 +18 +24 1021.0 974.2 +10.8 +17.9 0.0
В 3 40 км 1/1 1000 м
[Cu hum]
+19.3 +11.1 59 +21 +27 комфорт 1020.8 974.2
СВ 2 50 км 1/1 1000 м
[Cu med, cong]
+21.8 +10.9 50 +24 +35 комфорт 1020.2 974.0
С 2 30 км 1/1 1500 м
[Cu med, cong Ci fib]
+23.2 +10.9 46 +25 +39 комфорт 1019.6 973.7
С 4 40 км 1/1 1500 м
[Cu med, cong]
+23.8 +9.8 41 +25 +35 комфорт 1019.2 973.4
СЗ 2 40 км 3/3 1500 м
[Cu med, cong]
+23.1 +10.5 45 +25 +37 комфорт 1019.0 973.1
С 2 40 км 4/4 1500 м
[Cb cap]
+24.6 +10.8 42 +26 +36 жарко 1018.1 972.4
СВ 3 40 км 5/4 1500 м
[Cb cap Ci ing]
+24.6 +9.3 38 +25 +32 комфорт 1017.5 971.9
СВ 3 40 км 4/3 1500 м
[Cb cap Ci fib]
+23.2 +7.3 36 +24 +30 комфорт 1017.4 971.6
В 2 40 км гроза без осадков 4/4 1500 м
[Cb cap]
+24.0 +8.4 37 +25 +29 комфорт 1016.9 971.2
Ю 3 40 км в посл. час гроза 6/6 1000 м
[Cb cap]
+21.3 +8.9 45 +23 +24 комфорт 1017.4 971.3
Ю 2 40 км 4/3 1500 м
[Cb cap Ci ing]
+20.3 +6.6 41 +22 +23 комфорт 1017.7 971.4
ЮЗ 4 50 км {гроза} 4/3 1500 м
[Cb calv Ci fib]
+20.2 +5.8 39 +21 +21 комфорт 1017.4 971.1 +17.9 +24.9
В 3 40 км 4/1 1500 м
[Sc diur, vesp Ac trans Ci fib]
+16.5 +7.9 57 +16 +16 1018.1 971.2
В 4 40 км 3/1 1500 м
[Sc Ac trans]
+14.7 +8.2 65 +14 +14 1018.3 971.1
В 3 50 км н/о +14.6 +7.4 62 +14 +14 1018.4 971.2
В 3 45 км н/о +14.1 +7.6 65 +13 +13 1018.4 971.1
В 3 50 км н/о +13.7 +7.0 64 +13 +13 1018.3 970.9
В 3 50 км н/о +12.7 +7.6 71 +11 +11 1018.4 970.9
В 3 50 км н/о +12.9 +7.3 69 +12 +12 1018.0 970.5
В 3 50 км н/о +12.5 +7.2 70 +11 +11 1017.8 970.3
В 3 50 км н/о +13.8 +6.6 62 +13 +13 1017.4 970.1
В 4 50 км н/о +13.8 +6.9 63 +12 +12 1017.3 970.0
В 4 40 км 5/5 1000 м
[Sc]
+14.4 +7.2 62 +13 +14 1017.2 970.0
В 4 40 км 6/3 1000 м
[Sc Ac trans Ci fib]
+18.4 +7.5 49 +19 +20 1016.5 970.0 +12.3 +20.2
В 3 50 км 3/0
[Ac cast Ci fib]
+21.2 +6.7 39 +22 +28 комфорт 1016.2 970.1
В 3 50 км 3/1 1000 м
[Cu hum Ac trans]
+22.8 +6.5 35 +23 +31 комфорт 1015.9 970.1
В 3 50 км 3/3 1000 м
[Cu med, cong]
+23.6 +5.0 30 +23 +32 комфорт 1015.6 969.9
СВ 3 50 км 4/4 1000 м
[Cu med, cong]
+23.2 +5.6 32 +24 +32 комфорт 1015.3 969.6
СВ 2 50 км 5/5 1000 м
[Cu med, cong]
+23.3 +6.1 33 +24 +32 комфорт 1014.8 969.1
СВ 5 50 км 6/5 1500 м
[Cu med, cong Ac trans]
+24.6 +6.8 32 +25 +28 комфорт 1014.1 968.6
В 4 50 км 6/5 1500 м
[Cu med, cong Ac trans]
+24.2 +5.5 30 +24 +28 комфорт 1013.7 968.2
В 5 {9} 50 км 6/4 1500 м
[Cu med, cong Ac trans]
+23.5 +5.4 31 +23 +26 комфорт 1013.4 967.8
СВ 4 {9} 50 км 4/1 1500 м
[Cu hum Ac trans]
+24.2 +5.0 29 +24 +27 комфорт 1013.1 967.6
Местоположение метеостанции Бельско-Бяла (Польша): широта 49.80 долгота 19.00 высота над уровнем моря 399 м.
В архиве по умолчанию представлена погода в Бельско-Бяла за последнюю неделю. Архивные данные за месяц целиком и за предыдущие месяцы, начиная с января 2011 года, Вы можете получить, выбрав интересующий диапазон дат из раскрывающегося списка и нажав кнопку "Найти!".
*Определитесь, кто Вы:
Внимание! Время в таблицах - всемирное. Для получения местного времени необходимо прибавить поправку, которая равна 1 ч.
Некоторые строки с данными для отдельных станций могут быть выделены курсивом. Это означает, что фактические данные отсутствуют по различным причинам, а приведенные значения являются расчетными модельными данными для данного пункта наблюдений.
Смотрите также архив погоды в соседних городах и на ближайших метеорологических станциях:
Партнеры нашего сайта:      
Пояснения к столбцам:
  • Ветер - указаны скорость ветра в м/с - средняя за 10 мин, порывы в срок и между сроками (в фигурных скобках) и направление, откуда дует ветер: С - северный,
  • СВ - северо-восточный, В - восточный, ЮВ - юго-восточный, Ю - южный, ЮЗ - юго-западный, З - западный, СЗ - северо-западный.
  • Видимость - горизонтальная дальность видимости в метрах или километрах. При видимости от 1 до 10 км при отсутствии осадков обычно наблюдается дымка, при ухудшении видимости до 1 км и менее - туман. В сухую погоду видимость может ухудшаться дымом, пылью или мглою.
  • Явления - указаны атмосферные явления, наблюдавшиеся в срок или в последний час перед сроком; фигурными скобками обозначены явления, наблюдавшиеся между сроками (за 1-3 часа до срока); квадратными скобками обозначены град или гололедные отложения с указанием их диаметра в мм.
  • Облачность - указаны через наклонную черту общая и нижняя облачность в баллах и высота нижней границы облаков в метрах; квадратными скобками обозначены формы облаков: Ci - перистые, Cs - перисто-слоистые, Cc - перисто-кучевые, Ac - высококучевые, As - высокослоистые, Sc - слоисто-кучевые, Ns - слоисто-дождевые, Cu - кучевые, Cb - кучево-дождевые. Подробнее классификацию облаков см. в Атласе облаков (PDF).
  • T - Температура воздуха - температура, измеренная на высоте 2 м над землей.
  • Td - Температура точки росы - температура, при понижении до которой содержащийся в воздухе водяной пар достигнет насыщения.
  • f - Относительная влажность воздуха - влажноcть воздуха, измеренная на высоте 2 м над землей.
  • Te - Эффективная температура - температура, которую ощущает одетый по сезону человек в тени. Характеристика душности погоды. При расчете учитывается влияние влажности воздуха и скорости ветра на теплоощущения человека.
  • Tes - Эффективная температура на солнце - температура, которую ощущает человек, с поправкой на солнечный нагрев. Характеристика знойности погоды. Зависит от высоты солнца над горизонтом, облачности и скорости ветра. Ночью, в пасмурную погоду, а также при ветре 12 м/с и более поправка равна нулю.
  • P - Атмосферное давление - приведенное к уровню моря атмосферное давление.
  • Po - Атмосферное давление - измеренное на уровне метеостанции атмосферное давление.
  • Tmin - Минимальная температура - минимум температуры воздуха на высоте 2 м над землей.
  • Tmax - Максимальная температура - максимум температуры воздуха на высоте 2 м над землей.
  • R - Количество осадков - Количество выпавших осадков за период времени, мм. При наведении курсора мыши на число - период времени, за который выпало указанное количество осадков.
  • R24 - Количество осадков - Количество выпавших осадков за 24 часа, мм.
  • S - Снежный покров - Высота снежного покрова, см. При наведении курсора мыши на число - состояние снежного покрова и степень покрытия местности в баллах.